Weather in Ulsan

South Korea     35°31′39″N   129°20′28″E
temp.,
°C
wind,
m/s
gust,
m/s
humid.,
%
clouds,
%
prec.,
mm/h
press.,
hPa
HPBL,
m
15 april, thu
thu1500:00+6wnw21490 0.0 102016
03:00+5wnw215061 0.0 101916
06:00+4wnw21511 0.0 102016
09:00+11nnw0137100 0.0 1020335
12:00+15se2236100 0.0 10191405
15:00+14se3341100 0.0 10191108
18:00+11sse2555100 0.0 1019249
21:00+8sw11708 0.0 102014
16 april, fri
fri1600:00+7wsw117615 0.0 102012
03:00+6wsw11786 0.0 101914
06:00+7wsw21775 0.0 101817
09:00+14ssw3860100 0.0 1018883
12:00+17sw595564 0.0 10171285
15:00+17ssw596885 0.0 10161209
18:00+14ssw3886100 0.1 1017703
21:00+12sw2394100 0.1 101886
17 april, sat
sat1700:00+12wsw1294100 0.0 101872
03:00+12ssw1195100 0.0 101526
06:00+12s1195100 0.0 101427
09:00+17sw386498 0.1 10131046
12:00+20sw610410 0.0 10101880
15:00+20wsw7153662 0.0 10073056
18:00+12wnw613520 0.1 10101657
21:00+8w614360 0.1 10131342
18 april, sun
sun1800:00+6w412550 0.0 10121037
03:00+6w617620 0.0 10101118
06:00+7wnw818631 0.0 10101103
09:00+11wnw1019540 0.0 10101211
12:00+16nw915360 0.0 10101701
15:00+17nw610280 0.0 10101984
18:00+14wnw37420 0.0 1012458
21:00+9wnw22560 0.0 101423
19 april, mon
mon1900:00+8wnw22580 0.0 101533
03:00+6wnw22610 0.0 101521
06:00+5w22650 0.0 101540
09:00+15nw48350 0.0 1015779
12:00+19nw35250 0.0 10141427
15:00+21nw46230 0.0 10131842
18:00+18nw13420 0.0 1013161
21:00+12w22530 0.0 101516